Starlink 4783

operational
NORAD ID: 53835 Int'l Des: 2022-114 Owner: SPXS Country: US Constellation: starlink
LEOCIRCULAR

About Starlink 4783

Description loading...

Live Position

Loading 3D Globe...

Upcoming Passes

Altitude History

Altitude vs Time

uPlot chart will show altitude changes over time

Two-Line Element Set

1 53835U 22114T 25348.96372577 .00000807 00000-0 68776-4 0 9995
2 53835 53.2178 324.2553 0001401 91.8430 268.2722 15.08832331180043
Epoch: Dec 14, 2025 • Age: 11 hours

Current Status

Altitude 556.3 km
Velocity 7.58 km/s
Sub-Earth Point -45.95°S, 38.03°E
Launch Date Sep 19, 2022
Age 3.2 years
Type internet

Technical Details

Classification Payload
Mass 305.00 kg
Dry Mass 290.00 kg
Total Mass 305.00 kg
Length 0.20 m
Diameter 2.80 m
Span 9.00 m
Shape Box + pan
Manufacturer SPXS
Bus Type Starlink
Phase Status In Orbit
Owner/State SPXS/US

Large Constellations

Loading constellations...